This demonstration page uses our WeatherBlox Daily Observations layout. Learn more.

Hourly Observations for September 9, 2015

Temp ( °F °C ) Dew Point ( °F °C ) Humidity (%) Winds ( mph kmh ) Pressure ( in mb ) Visibility ( mi km ) Precip ( " mm )
12:15 am 00:15 Clear 60 15.8 58 14.5 92 92 E 5 7 30.03 1017 10 16.0934 0 0
12:35 am 00:35 Clear 62 16.5 59 15 91 91 E 5 7 30 1016 10 16.0934 0 0
12:55 am 00:55 Clear 61 16 58 14.6 91 91 ENE 3 6 30.03 1017 10 16.0934 0 0
1:15 am 01:15 Clear 60 15.6 58 14.6 94 94 Calm 30.03 1017 7 11.26538 0 0
1:35 am 01:35 Clear with Mist and Fog 60 15.3 58 14.5 95 95 Calm 30.06 1018 5 8.0467 0 0
1:55 am 01:55 Clear 59 15 57 14.1 94 94 Calm 30.06 1018 7 11.26538 0 0
2:15 am 02:15 Clear with Mist and Fog 58 14.6 57 13.9 96 96 Calm 30.06 1018 3 4.82802 0 0
2:35 am 02:35 Clear with Mist and Fog 59 14.8 57 14 95 95 ESE 3 6 30.03 1017 5 8.0467 0 0
2:55 am 02:55 Clear 59 15 58 14.2 95 95 Calm 30.06 1018 7 11.26538 0 0
3:15 am 03:15 Clear 57 13.8 55 13 95 95 Calm 30.03 1017 7 11.26538 0 0
3:35 am 03:35 Mostly Cloudy with Mist and Fog 57 13.9 56 13.1 95 95 Calm 30.06 1018 1.75 2.816345 0 0
3:55 am 03:55 Clear with Mist and Fog 55 12.7 53 11.9 95 95 Calm 30.06 1018 5 8.0467 0 0
4:15 am 04:15 Mostly Cloudy with Mist and Fog 57 13.9 56 13.2 96 96 Calm 30.03 1017 1.5 2.41401 0 0
4:35 am 04:35 Clear with Mist and Fog 58 14.2 56 13.5 96 96 S 3 6 30.06 1018 4 6.43736 0 0
4:55 am 04:55 Clear with Mist and Fog 58 14.5 57 13.8 96 96 Calm 30.06 1018 5 8.0467 0 0
5:15 am 05:15 Clear with Mist and Fog 58 14.3 56 13.6 96 96 Calm 30.03 1017 3 4.82802 0 0
5:35 am 05:35 Clear with Mist and Fog 55 12.5 53 11.8 96 96 Calm 30.09 1019 2 3.21868 0 0
5:55 am 05:55 Mostly Cloudy with Fog 57 13.7 55 13 96 96 Calm 30.06 1018 0.5 0.80467 0 0
6:15 am 06:15 Partly Cloudy with Mist and Fog 58 14.3 57 13.7 96 96 Calm 30.06 1018 4 6.43736 0 0
6:35 am 06:35 Mostly Cloudy with Mist and Fog 58 14.7 57 14.1 96 96 Calm 30.06 1018 4 6.43736 0 0
6:55 am 06:55 Partly Cloudy with Mist and Fog 59 15 58 14.5 97 97 SW 3 6 30.06 1018 5 8.0467 0 0
7:15 am 07:15 Sunny with Mist and Fog 59 15.1 58 14.5 96 96 SW 5 7 30.06 1018 4 6.43736 0 0
7:35 am 07:35 Partly Cloudy with Mist and Fog 60 15.5 59 14.9 96 96 SW 3 6 30.06 1018 3 4.82802 0 0
7:55 am 07:55 Mostly Cloudy with Mist and Fog 61 16.2 60 15.6 96 96 SW 5 7 30.06 1018 4 6.43736 0 0
8:15 am 08:15 Cloudy with Mist and Fog 62 16.5 61 15.9 96 96 Calm 30.03 1017 4 6.43736 0 0
8:35 am 08:35 Mostly Cloudy 63 17.3 62 16.5 95 95 S 5 7 30.03 1017 7 11.26538 0 0
8:55 am 08:55 Partly Cloudy 65 18.6 63 17 90 90 S 6 9 30.03 1017 10 16.0934 0 0
9:15 am 09:15 Sunny 68 19.8 63 17.1 85 85 S 8 13 30.03 1017 10 16.0934 0 0
9:35 am 09:35 Sunny 69 20.5 62 16.8 79 79 S 8 13 29.97 1015 10 16.0934 0 0
9:55 am 09:55 Sunny 71 21.4 63 17 76 76 S 7 11 29.97 1015 10 16.0934 0.03 0.762
10:15 am 10:15 Sunny 72 22 62 16.6 72 72 S 8 13 29.97 1015 10 16.0934 0 0
10:35 am 10:35 Sunny 73 22.7 61 16.2 67 67 S 8 13 29.97 1015 10 16.0934 0 0
10:55 am 10:55 Sunny 75 23.7 62 16.5 64 64 S 7 11 29.94 1014 10 16.0934 0 0
11:15 am 11:15 Sunny 76 24.2 62 16.6 63 63 S 9 15 29.94 1014 10 16.0934 0 0
11:35 am 11:35 Sunny 78 25.3 62 16.5 58 58 S 13 20 29.91 1013 10 16.0934 0 0
11:55 am 11:55 Sunny with Nearby Thunderstorms 78 25.3 62 16.6 59 59 S 13 20 29.91 1013 10 16.0934 0 0
12:15 pm 12:15 Partly Cloudy 79 25.9 61 16.3 56 56 S 15 24 29.91 1013 10 16.0934 0 0
12:35 pm 12:35 Mostly Cloudy 78 25.8 61 16.2 55 55 S 14 22 29.88 1012 10 16.0934 0 0
12:55 pm 12:55 Partly Cloudy 81 27.3 61 16 50 50 S 15 24 29.85 1011 10 16.0934 0 0
1:15 pm 13:15 Partly Cloudy 82 27.7 61 16.1 49 49 S 13 20 29.85 1011 10 16.0934 0 0
1:35 pm 13:35 Partly Cloudy 83 28.6 60 15.3 44 44 S 16 26 29.85 1011 10 16.0934 0 0
1:55 pm 13:55 Mostly Cloudy 82 28 59 14.8 45 45 S 15 24 29.85 1011 10 16.0934 0 0
2:15 pm 14:15 Cloudy 83 28.3 59 15 44 44 S 15 24 29.83 1010 10 16.0934 0 0
2:35 pm 14:35 Mostly Cloudy 83 28.4 58 14.6 43 43 S 13 20 29.83 1010 10 16.0934 0 0
2:55 pm 14:55 Mostly Cloudy 84 29 58 14.3 41 41 S 13 20 29.83 1010 10 16.0934 0 0
3:15 pm 15:15 Mostly Cloudy 84 28.9 56 13.5 39 39 S 14 22 29.8 1009 10 16.0934 0 0
3:35 pm 15:35 Partly Cloudy 85 29.6 54 12.4 35 35 S 14 22 29.77 1008 10 16.0934 0 0
3:55 pm 15:55 Sunny 86 29.9 55 12.6 35 35 S 16 26 29.74 1007 10 16.0934 0 0
4:15 pm 16:15 Sunny 83 28.2 55 12.7 38 38 S 13 20 29.77 1008 10 16.0934 0 0
4:35 pm 16:35 Sunny with Nearby Thunderstorms 82 27.7 55 12.8 40 40 S 12 19 29.77 1008 10 16.0934 0 0
4:55 pm 16:55 Sunny with Nearby Thunderstorms 81 27.3 55 12.7 40 40 S 14 22 29.74 1007 10 16.0934 0 0
5:15 pm 17:15 Sunny 80 26.7 55 12.8 42 42 S 10 17 29.74 1007 10 16.0934 0 0
5:35 pm 17:35 Sunny 80 26.6 55 12.7 42 42 SSE 8 13 29.74 1007 10 16.0934 0 0
5:55 pm 17:55 Sunny 80 26.8 55 12.5 41 41 S 10 17 29.74 1007 10 16.0934 0 0
6:15 pm 18:15 Sunny 82 28 54 12.2 38 38 S 10 17 29.74 1007 10 16.0934 0 0
6:35 pm 18:35 Sunny 83 28.1 53 11.4 35 35 S 13 20 29.74 1007 10 16.0934 0 0
6:55 pm 18:55 Sunny 82 27.7 53 11.8 37 37 S 14 22 29.74 1007 10 16.0934 0 0
7:15 pm 19:15 Sunny 81 27 54 12.2 40 40 S 12 19 29.74 1007 10 16.0934 0 0
7:35 pm 19:35 Sunny with Nearby Thunderstorms 79 25.9 55 12.7 44 44 S 7 11 29.74 1007 10 16.0934 0 0
7:55 pm 19:55 Sunny 76 24.2 56 13.3 51 51 SSE 6 9 29.8 1009 10 16.0934 0 0
8:15 pm 20:15 Clear 72 22.2 56 13.5 58 58 SE 6 9 29.83 1010 10 16.0934 0 0
8:35 pm 20:35 Clear 70 21.1 56 13.6 62 62 SSE 5 7 29.83 1010 10 16.0934 0 0
8:55 pm 20:55 Clear 70 21.2 57 14 64 64 S 7 11 29.83 1010 10 16.0934 0 0
9:15 pm 21:15 Clear 70 21 57 13.9 64 64 S 5 7 29.83 1010 10 16.0934 0 0
9:35 pm 21:35 Clear 70 21 57 13.9 64 64 S 8 13 29.83 1010 10 16.0934 0 0
9:55 pm 21:55 Clear 69 20.5 57 14 66 66 S 9 15 29.85 1011 10 16.0934 0 0
10:15 pm 22:15 Clear 69 20.5 57 13.8 66 66 SSE 8 13 29.85 1011 10 16.0934 0 0
10:35 pm 22:35 Clear 68 19.8 57 14 69 69 S 10 17 29.85 1011 10 16.0934 0 0
10:55 pm 22:55 Clear 65 18.6 57 14 75 75 N 7 11 29.91 1013 10 16.0934 0 0
11:15 pm 23:15 Clear 68 19.8 58 14.2 70 70 NE 5 7 29.88 1012 10 16.0934 0 0
11:35 pm 23:35 Clear 63 17.2 58 14.5 84 84 ENE 8 13 29.91 1013 10 16.0934 0 0
11:55 pm 23:55 Clear 64 17.5 59 15 85 85 ENE 6 9 29.94 1014 10 16.0934 0 0

Powered by AerisWeather